Погода в Балашове

Хотите узнать прогноз погоды в Балашове? Тогда Вам сюда: Погода в Балашове

Поиск расширенной информации на нашем сайте:

Полезная информация:

Новости сайта



02.01.2020
Опубликован Долгосрочный прогноз погоды по городам России и ближнего зарубежья на январь 2020 года.
Карты: Прогноз на январь и февраль 2020 года, Сравнение прогнозируемой аномалии приземной температуры воздуха на январь 2020 года по разным моделям.




Погода в Балашове - сегодня

Время (UTC), дата Ветер
(°,м/с) 
Видим.   Явления Облачность Т
(°С)
Тd
(°С)
f(%) Тe
(°С)
Pmin
(гПа)
dP
(гПа)
Po
(мм)
O2
(г/м3)
Тmin Tmax R s Состояние
почвы
00 19.01.20 220 (ЮЗ) 20000 м    10/0 средняя 
[Ac As]
-0.3 -1.3 93 -1  1029.8  0.3  757  306           
03 19.01.20 250 (З) 20000 м    10/0 средняя 
[Ac As]
+0.1 -1.5 89 -2  1029.1  -0.6  757  305  -0.5      12  равномерный
мокрый или
старый снег
100% 
06 19.01.20 240 (ЮЗ) 20000 м    10/10 600 м 
[Sc]
-0.1 -1.2 92 -2  1029.5  0.3  757  305           
09 19.01.20 250 (З) 4{10}  20000 м    10/10 600 м 
[Sc]
-0 -2.2 85 -2  1029.6  0.6  757  305           
12 19.01.20 250 (З) 20000 м    10/10 600 м 
[Sc]
-0.5 -2.3 88 -4  1029.5  -0.2  757  306           
15 19.01.20 270 (З) 20000 м    10/10 300 м 
[Sc]
-1.2 -2.4 92 -3  1030.1  0.6  758  307    +0.2       
18 19.01.20 270 (З) 20000 м    10/10 300 м 
[Sc]
-1.7 -2.9 91 -4  1030.5  0.4  758  308           
21 19.01.20 290 (З) 20000 м    10/10 300 м 
[St]
-2.2 -2.4 99 -4  1030.3  -0.2  758  308           
00 20.01.20 300 (СЗ) 20000 м    10/10 300 м 
[St]
-4.3 -4.9 96 -7  1030.5  758  311           
03 20.01.20 290 (З) 20000 м    10/10 300 м 
[St]
-5.2 -5.9 95 -8  1030.2  -0.4  757  312  -5.4      12  равномерный
мокрый или
старый снег
100% 
06 20.01.20 280 (З) 20000 м    10/10 300 м 
[St]
-4.5 -5.2 95 -7  1029.5  -0.6  757  311           
09 20.01.20 290 (З) 20000 м  {снег}  10/0 средняя 
[As op]
-3.3 -4.4 92 -7  1028.8  -0.6  756  309           
12 20.01.20 270 (З) 20000 м  {снег}  10/0 средняя 
[As op]
-2.2 -2.3 99 -5  1027.4  -1.2  755  307           
15 20.01.20 280 (З) 20000 м    10/10 600 м 
[Sc]
-1.5 -1.6 99 -4  1026.5  -0.8  755  306    -1.5  0.2     
18 20.01.20 280 (З) 10 км  слаб. снег  10/8 600 м средняя 
[Sc|As op]
-0.7 -0.8 99 -3  1025.6  -0.8  754  305           
21 20.01.20 280 (З) 20000 м  слаб. снег  10/10 600 м 
[Sc|Ns]
-0.1 -0.7 96 -3  1023.9  -1.6  753  304           
00 21.01.20 270 (З) 20000 м    10/10 1000 м 
[Sc]
-0.2 -0.5 98 -3  1022.8  -1.1  752  303           
03 21.01.20 280 (З) 20000 м    10/10 200 м 
[St]
-0.1 -1.4 91 -3  1021.2  -1.5  751  303  -1.5    0.0  12  равномерный
мокрый или
старый снег
100% 
06 21.01.20 260 (З) 20000 м    10/10 300 м 
[St]
+0 -0.1 99 -3  1019.1  -2  749  302           
09 21.01.20 270 (З) 6-10{11}  20000 м    10/10 600 м 
[Sc]
+0.3 -2.1 84 -3  1017.4  -1.7  748  301           
12 21.01.20 250 (З) 5{10}  4000 м  слаб. снег  10/8 600 м средняя 
[Sc|As op]
-0.5 -0.7 99 -4  1014.6  -2.8  746  301           
15 21.01.20 230 (ЮЗ) 4{10}  4000 м  слаб. снег  10/8 300 м средняя 
[Frnb|Ac As]
-0.9 -1.5 96 -3  1011.3  -3.2  744  301    +0.3     
18 21.01.20 260 (З) 7-12{12}  10 км  в посл. час снег  10/8 200 м средняя 
[Frnb|As op]
-0.2 -1 94 -4  1007.9  -3.3  741  299           
21 21.01.20 250 (З) 5{12}  4000 м  слаб. снег  10/8 200 м средняя 
[Frnb|As op]
-0.2 -0.7 96 -3  1004.3  -3.4  739  298           
00 22.01.20 260 (З) 5-11{11}  4000 м  слаб. снег  10/8 300 м средняя 
[Frnb|As op]
+0.2 -0.3 96 -3  1002.1  -2.2  737  297           
Время (UTC), дата Ветер
(°,м/с) 
Видим.   Явления Облачность Т
(°С)
Тd
(°С)
f(%) Тe
(°С)
Pmin
(гПа)
dP
(гПа)
Po
(мм)
O2
(г/м3)
Тmin Tmax R s Состояние
почвы

Для получения пояснительной информации подведите курсор к названию столбца.

ПОГОДА в Балашове - архив

Всё, что Вы хотите узнать о погоде в Балашове - удобно и подробно!

Выберите нужную дату (начиная с 1 января 2019* года) и нажмите кнопку "Найти".
Будут отображены архивные сводки погоды по пункту Балашов, начиная с указанной даты.


Отображать данные в формате CSV (для использования в таблицах Excel)


Внимание! Наш архив погоды предназначен исключительно для личного некоммерческого использования в познавательных целях. Если Вам необходимы официальные справки о состоянии погоды (для производственных, юридических, коммерческих и т.п. целей), обращайтесь в органы Росгидромета.

*Примечание: данная дата относится к архиву по метеостанциям СССР (Россия, СНГ, Балтия).
Архив по метеостанциям Зарубежной Европы и Азии (кроме Китая) хранится 10 дней, по другим регионам земного шара (Китай, Африка, Америка, Австралия, Океания) - 1 день.

Балашов - район местоположения метеостанции


Название, широта, долгота, высота метеостанции:
Балашов 51.6°ш. 43.2°д. 159 м над ур. моря [Российская Федерация]

Дополнительная информация

В oтличие oт бoльшинства пoгoдных сайтoв мы публикуем пoдрoбную метеoинфoрмацию в детальнoм прoфессиoнальнoм фoрмате.

Характеристики температуры и влажнoсти вoздуха измеряются на высoте 2 м в тени вдали oт зданий и деревьев.
Скoрoсть ветра измеряется на высoте 10 м (на урoвне рoста челoвека скoрoсть ветра ниже в 1.5-2 раза). Если метеoстанция нахoдится в гoрoде или в лесу, тo скoрoсть ветра занижена на 2-4 м/с пo сравнению с oткрытым местoм. Скoрoсть ветра над акватoриями крупных рек и oзёр, а также на вершинах хoлмoв на 2-5 м/с выше, чем в oбычных услoвиях.
Атмoсфернoе давление в разных тoчках местнoсти мoжет значительнo oтличаться oт давления на метеoстанции, в зависимoсти oт услoвий рельефа (при пoдъёме на 10 м давление пoнижается примернo на 1 мм рт.ст.).